Regional Weather Roundup
Issued by NWS

Home | Current Version | Previous Version | Graphics & Text | Print | Product List | Glossary On
Versions: 1 2 3 4 5 6 7 8 9 10 11 12 13 14 15 16 17 18 19 20 21 22 23 24 25 26 27 28 29 30 31 32 33 34 35 36 37 38 39 40 41 42 43 44 45 46 47 48 49 50
506
ASUS44 KLIX 272101
RWRLA
LOUISIANA WEATHER ROUNDUP
NATIONAL WEATHER SERVICE NEW ORLEANS LA
300 PM CST FRI FEB 27 2015

NOTE: "FAIR" INDICATES FEW OR NO CLOUDS BELOW 12,000 FEET WITH NO
      SIGNIFICANT WEATHER AND/OR OBSTRUCTIONS TO VISIBILITY.
      SKY/WX - SKY CONDITION AND SIGNIFICANT WEATHER.
      TMP - AIR TEMPERATURE.    DP   - DEWPOINT TEMPERATURE.
      RH  - RELATIVE HUMIDITY.  PRES - PRESSURE.
      HX  - HEAT INDEX.         WCI  - WIND CHILL INDEX.

*  THESE STATIONS ARE NOT NWS OR FAA STATIONS AND ARE NOT UNDER
   NWS QUALITY CONTROL.

LAZ040-048-061>063-065-066-069-272200-
SOUTHEAST LOUISIANA

CITY           SKY/WX    TMP DP  RH WIND       PRES   REMARKS
N.O. AUDUBON     N/A     52  36  53 MISG        N/A
N.O. INTL ARPT MOSUNNY   51  34  52 N12       30.32F
N.O. LAKEFRONT SUNNY     53  34  48 NW8       30.32F
SLIDELL        SUNNY     54  31  41 VRB3      30.31S
BATON ROUGE    SUNNY     52  33  48 NE8       30.33F
BOOTHVILLE     PTSUNNY   50  39  66 NE12G21   30.29F
BELLE CHASSE   MOSUNNY   54  30  40 NE13      30.30F
BOGALUSA*        N/A     50  32  50 NE9       30.35S
GALLIANO*      CLEAR     53  35  50 N9        30.30F
NEW ROADS*     NOT AVBL
GONZALES*      NOT AVBL
HAMMOND*       NOT AVBL
HOUMA*         SUNNY     54  36  50 NE14      30.30F
PORT FOURCHON* CLOUDY    48  39  71 NE16G26   30.32F

$$

LAZ041-044-053-054-272200-
SOUTHWEST LOUISIANA

CITY           SKY/WX    TMP DP  RH WIND       PRES   REMARKS
LAKE CHARLES   SUNNY     50  32  50 E12       30.33F
LAFAYETTE      SUNNY     51  34  52 NE10G16   30.33F
PATTERSON      SUNNY     54  36  50 NE12      30.31S
SALT POINT       N/A     52  34  50 VRB6      30.29F
NEW IBERIA     SUNNY     53  34  48 N9        30.32F
CHENAULT AIRPK NOT AVBL

$$

LAZ027-028-272200-
CENTRAL LOUISIANA

CITY           SKY/WX    TMP DP  RH WIND       PRES   REMARKS
FORT POLK      CLOUDY    48  29  47 VRB7      30.32F
ALEXANDRIA INT SUNNY     46  27  47 N7        30.36F
ALEXANDRIA     SUNNY     47  27  45 VRB7      30.38F

$$

LAZ001-002-272200-
NORTHWEST LOUISIANA

CITY           SKY/WX    TMP DP  RH WIND       PRES   REMARKS
SHREVEPORT     CLOUDY    34  21  59 N15       30.43F WCI  24
BARKSDALE AFB  CLOUDY    33  21  60 N10       30.43F WCI  25
DTN SHREVEPORT CLOUDY    33  18  53 NE12      30.44F WCI  24

$$

LAZ014-016-272200-
NORTHEAST LOUISIANA

CITY           SKY/WX    TMP DP  RH WIND       PRES   REMARKS
MONROE         PTSUNNY   36  25  64 NE9       30.49S WCI  29
TALLULAH       SUNNY     41  27  57 N10       30.43S

$$




USA.gov is the U.S. government's official web portal to all federal, state and local government web resources and services.